This is the latest recevied weather packets stored in our database for station/object KE5YIM-13. If no packets are shown the sender has not sent any weather packets the latest 10 day(s).
| Time | Temp. | Humidity | Pressure | Rain* | Wind** | Luminosity | Snow |
|---|---|---|---|---|---|---|---|
| 1778027937 | 17.22° C | 70% | 1011.1 hPa | 0 mm | - | 0 W/m² | - |
| 1778027633 | 17.22° C | 71% | 1011 hPa | 0 mm | - | 0 W/m² | - |
| 1778027330 | 17.22° C | 69% | 1010.9 hPa | 0 mm | - | 0 W/m² | - |
| 1778027026 | 17.22° C | 70% | 1010.9 hPa | 0 mm | - | 0 W/m² | - |
| 1778026722 | 17.78° C | 69% | 1011.1 hPa | 0 mm | - | 0 W/m² | - |
| 1778026419 | 17.78° C | 69% | 1011.1 hPa | 0 mm | - | 0 W/m² | - |
| 1778026116 | 17.78° C | 68% | 1010.7 hPa | 0 mm | - | 0 W/m² | - |
| 1778025814 | 17.78° C | 67% | 1010.6 hPa | 0 mm | - | 1 W/m² | - |
| 1778025510 | 17.78° C | 67% | 1010.8 hPa | 0 mm | - | 1 W/m² | - |
| 1778025208 | 17.78° C | 67% | 1010.5 hPa | 0 mm | - | 3 W/m² | - |
| 1778024904 | 18.33° C | 67% | 1010.5 hPa | 0 mm | - | 4 W/m² | - |
| 1778024603 | 17.78° C | 67% | 1010.5 hPa | 0 mm | - | 7 W/m² | - |
| 1778024299 | 17.78° C | 67% | 1010.5 hPa | 0 mm | - | 10 W/m² | - |
| 1778023997 | 18.33° C | 67% | 1010.4 hPa | 0 mm | - | 13 W/m² | - |
| 1778023694 | 18.33° C | 66% | 1010.5 hPa | 0 mm | - | 17 W/m² | - |
| 1778023392 | 18.33° C | 66% | 1010.5 hPa | 0 mm | - | 21 W/m² | - |
| 1778023088 | 18.33° C | 66% | 1010.3 hPa | 0 mm | - | 25 W/m² | - |
| 1778022787 | 18.89° C | 66% | 1010.1 hPa | 0 mm | - | 31 W/m² | - |
| 1778022484 | 18.89° C | 66% | 1010.1 hPa | 0 mm | - | 35 W/m² | - |
| 1778022181 | 18.89° C | 65% | 1010.1 hPa | 0 mm | - | 38 W/m² | - |
| 1778021877 | 19.44° C | 65% | 1010.1 hPa | 0 mm | - | 44 W/m² | - |
| 1778021575 | 19.44° C | 65% | 1009.9 hPa | 0 mm | - | 48 W/m² | - |
| 1778021269 | 19.44° C | 64% | 1009.8 hPa | 0 mm | - | 51 W/m² | - |
| 1778020968 | 20° C | 64% | 1010 hPa | 0 mm | - | 61 W/m² | - |
| 1778020665 | 20° C | 63% | 1010.1 hPa | 0 mm | - | 72 W/m² | - |
* Rain latest hour (hover to see other rain measurements)
** Current wind speed in m/s (hover to see current wind gust speed)